Погода в Мартоке

Хотите узнать прогноз погоды в Мартоке? Тогда Вам сюда: Погода в Мартоке

Поиск расширенной информации на нашем сайте:

Полезная информация:

Новости сайта



02.01.2020
Опубликован Долгосрочный прогноз погоды по городам России и ближнего зарубежья на январь 2020 года.
Карты: Прогноз на январь и февраль 2020 года, Сравнение прогнозируемой аномалии приземной температуры воздуха на январь 2020 года по разным моделям.




Погода в Мартоке - сегодня

Время (UTC), дата Ветер
(°,м/с) 
Видим.   Явления Облачность Т
(°С)
Тd
(°С)
f(%) Тe
(°С)
Pmin
(гПа)
dP
(гПа)
Po
(мм)
O2
(г/м3)
Тmin Tmax R s Состояние
почвы
00 22.10.21 250 (З) 20000 м  {ливн. осадки}  10/10 600 м кучево-дожд. 
[Cb calv]
+4.6 +0.4 74 +2  1012.5  -1.9  743  294           
06 22.10.21 220 (ЮЗ) 20000 м  {ливн. осадки}  9/4 1000 м средняя 
[Cu med, cong|Ac cuf]
+6.6 +0.8 66 +5  1014.7  1.3  745  293  +1.7       
09 22.10.21 240 (ЮЗ) 20000 м    4/0 верхняя 
[Ci sp]
+10.7 +2.3 56 +9  1014.5  0.1  745  288           
12 22.10.21 200 (Ю) 20000 м    8/0 верхняя 
[Ci fib]
+13.9 +1.1 42 +13  1013.6  -0.7  744  285           
15 22.10.21 250 (З) 20000 м    5/0 верхняя 
[Ci fib]
+11.9 +0.6 46 +10  1014.9  1.2  745  288    +14.4  0.0     
18 22.10.21 230 (ЮЗ) 20000 м    4/0 верхняя 
[Ci fib]
+10 -0.9 47 +9  1016.4  1.2  746  290    +14.4  0.0     
21 22.10.21 200 (Ю) 20000 м    ясно 
+8.7 +4.7 76 +8  1016.6  0.2  746  291           
00 23.10.21 230 (ЮЗ) 20000 м    ясно 
+6.9 +4.1 82 +5  1016.9  0.1  746  293           
03 23.10.21 220 (ЮЗ) 20000 м    3/0 верхняя 
[Ci fib]
+5.9 +4.3 89 +4  1017.6  0.7  747  294           
06 23.10.21 230 (ЮЗ) 20000 м    9/9 600 м кучево-дожд. 
[Cb calv]
+8.9 +6.8 87 +8  1019.2  1.7  748  291  +5.7         
09 23.10.21 210 (ЮЗ) 20000 м    8/0 верхняя 
[Cs]
+13.6 +7 64 +13  1018.9  0.2  748  286           
12 23.10.21 230 (ЮЗ) 20000 м    9/0 средняя, верхняя 
[Ac trans|Cs]
+15.5 +7.7 60 +16  1018.5  -0.3  748  284           
15 23.10.21 170 (Ю) 20000 м    3/0 верхняя 
[Ci fib]
+13.2 +8.4 73 +13  1019.8  1.1  749  286    +15.8       
18 23.10.21 190 (Ю) 20000 м    8/0 верхняя 
[Ci fib]
+11.1 +7.8 80 +11  1020.3  0.3  749  289    +15.8       
21 23.10.21 190 (Ю) 20000 м    9/0 верхняя 
[Cs]
+9.9 +8.5 91 +10  1019.8  -0.5  749  290           
00 24.10.21 190 (Ю) 20000 м    9/0 средняя 
[Ac trans]
+8.9 +7.2 89 +9  1009  -0.7  741  288           
03 24.10.21 170 (Ю) 20000 м    8/0 средняя, верхняя 
[Ac cuf|Cc]
+5.4 +1.1 74 +5  1018.3  -1.2  747  295           
06 24.10.21 150 (ЮВ) 20000 м    9/0 средняя 
[Ac As]
+8.5 -0.4 53 +8  1017.6  -0.5  747  292  +5.3         
09 24.10.21 240 (ЮЗ) 20000 м    9/0 средняя, верхняя 
[Ac cuf|Ci fib]
+16 +3.7 44 +16  1015.4  -1.5  746  283           
12 24.10.21 210 (ЮЗ) 20000 м    10/10 600 м 
[Sc]
+15.8 +7.6 58 +16  1014.8  -0.6  745  283           
15 24.10.21 210 (ЮЗ) 20000 м    8/8 600 м кучево-дожд. 
[Cb calv]
+10.3 +9.1 92 +10  1016.3  1.1  746  288    +16.2       
18 24.10.21 тихо ()   20000 м    8/8 600 м кучево-дожд. 
[Cb calv]
+9.7 +7.8 88 +10  1016.4  -0.1  746  289    +16.2       
21 24.10.21 тихо ()   20000 м    8/8 600 м кучево-дожд. 
[Cb calv]
+9.1 +8.1 93 +9  1015.9  -0.5  746  289           
06 25.10.21 310 (СЗ) 10 км  слаб. ливневой дождь  10/10 600 м кучево-дожд. 
[Cb calv]
+6.5 +5.4 93 +6  1015.1  0.6  745  292  +8       
09 25.10.21 340 (С) 10 км  слаб. ливневой дождь  10/10 600 м кучево-дожд. 
[Cb calv]
+5.5 +4.3 92 +4  1014.8  -0.4  745  293           
Время (UTC), дата Ветер
(°,м/с) 
Видим.   Явления Облачность Т
(°С)
Тd
(°С)
f(%) Тe
(°С)
Pmin
(гПа)
dP
(гПа)
Po
(мм)
O2
(г/м3)
Тmin Tmax R s Состояние
почвы

Для получения пояснительной информации подведите курсор к названию столбца.

ПОГОДА в Мартоке - архив

Всё, что Вы хотите узнать о погоде в Мартоке - удобно и подробно!

Выберите нужную дату (начиная с 1 января 2019* года) и нажмите кнопку "Найти".
Будут отображены архивные сводки погоды по пункту Марток, начиная с указанной даты.


Отображать данные в формате CSV (для использования в таблицах Excel)


Внимание! Наш архив погоды предназначен исключительно для личного некоммерческого использования в познавательных целях. Если Вам необходимы официальные справки о состоянии погоды (для производственных, юридических, коммерческих и т.п. целей), обращайтесь в органы Росгидромета.

*Примечание: данная дата относится к архиву по метеостанциям СССР (Россия, СНГ, Балтия).
Архив по метеостанциям Зарубежной Европы и Азии (кроме Китая) хранится 10 дней, по другим регионам земного шара (Китай, Африка, Америка, Австралия, Океания) - 1 день.

Марток - район местоположения метеостанции


Название, широта, долгота, высота метеостанции:
Марток 50.8°ш. 56.5°д. 178 м над ур. моря [Казахстан]

Дополнительная информация

В oтличие oт бoльшинства пoгoдных сайтoв мы публикуем пoдрoбную метеoинфoрмацию в детальнoм прoфессиoнальнoм фoрмате.

Характеристики температуры и влажнoсти вoздуха измеряются на высoте 2 м в тени вдали oт зданий и деревьев.
Скoрoсть ветра измеряется на высoте 10 м (на урoвне рoста челoвека скoрoсть ветра ниже в 1.5-2 раза). Если метеoстанция нахoдится в гoрoде или в лесу, тo скoрoсть ветра занижена на 2-4 м/с пo сравнению с oткрытым местoм. Скoрoсть ветра над акватoриями крупных рек и oзёр, а также на вершинах хoлмoв на 2-5 м/с выше, чем в oбычных услoвиях.
Атмoсфернoе давление в разных тoчках местнoсти мoжет значительнo oтличаться oт давления на метеoстанции, в зависимoсти oт услoвий рельефа (при пoдъёме на 10 м давление пoнижается примернo на 1 мм рт.ст.).